Content
SEND FEEDBACK

Daily
Averages
Monthly
Summary
United States of America

ROCK HILL, NEW YORK


Home > North America > United States > New York
Elevation: 1260 feet     Latitude: 41 35N     Longitude: 074 37W

WEATHER
 
SELECT A DAY
Number of Records: 449,140;   Date Range: 1/1/95 - 9/30/14
 
SHARE

PRINT THIS DATA

[ ← Previous Day ]
WEATHER ALMANAC - MAY 6, 2014
[ Next Day → ]
[ °C ]   °F
Weather ElementAverageHighLow
Temperature51 °F59 °F (3:55 pm)41 °F (2:15 am)
Dewpoint28.3 °F33.8 °F (10:15 am)24.8 °F (4:55 pm)
Humidity42.9 %61 % (2:15 am)29 % (4:35 pm)
Barometer29.98 in30.11 in (11:35 pm)29.91 in (2:55 am)
Wind Speed10.2 mph19.6 mph (3:35 pm)
Wind Gust28.8 mph (4:35 pm)
Weather ElementAverage
Visibility10 mi
Wind DirectionWNW (293.2 °)

Weather ElementTotal
Precipitation---
Heating Degree Days15 (Base 65)
Averaged from 57 records on May 6, 2014
WEATHER CONDITIONS BREAKOUT
WIND DIRECTION BREAKOUT
WEATHER BY HOUR - MAY 6, 2014
[ °C ]   °F
Local TimeTemperatureDewpointHumidityBarometerVisibilityWind DirectionWind SpeedGust SpeedPrecipitationEventsConditions
12:35 AM42.8 °F26.6 °F53 %29.93 in10.0 miNW (320°)3.5 mphScattered Clouds
12:55 AM42.8 °F26.6 °F53 %29.93 in10.0 miWNW (290°)4.6 mphOvercast
1:15 AM42.8 °F26.6 °F53 %29.93 in10.0 miWNW (300°)5.8 mphOvercast
1:35 AM42.8 °F28.4 °F57 %29.93 in10.0 miNW (320°)5.8 mphOvercast
1:55 AM42.8 °F28.4 °F57 %29.92 in10.0 miCalmOvercast
2:15 AM41.0 °F28.4 °F61 %29.93 in10.0 miNNW (330°)4.6 mphOvercast
2:35 AM42.8 °F28.4 °F57 %29.92 in10.0 miCalmOvercast
2:55 AM41.0 °F28.4 °F61 %29.91 in10.0 miCalmScattered Clouds
3:15 AM42.8 °F28.4 °F57 %29.91 in10.0 miNorth (360°)3.5 mphClear
3:35 AM42.8 °F28.4 °F57 %29.91 in10.0 miNorth (360°)4.6 mphClear
7:55 AM42.8 °F30.2 °F61 %29.96 in10.0 miCalmMostly Cloudy
8:15 AM44.6 °F32.0 °F61 %29.96 in10.0 miCalmScattered Clouds
8:35 AM44.6 °F30.2 °F57 %29.96 in10.0 miWest (280°)4.6 mphPartly Cloudy
8:55 AM46.4 °F30.2 °F53 %29.96 in10.0 miWest (280°)5.8 mphScattered Clouds
9:15 AM48.2 °F28.4 °F46 %29.96 in10.0 miWest (280°)10.4 mphMostly Cloudy
10:15 AM53.6 °F33.8 °F47 %29.95 in10.0 miWest (280°)8.1 mphClear
10:35 AM55.4 °F32.0 °F41 %29.95 in10.0 miWNW (300°)11.5 mph18.4 mphScattered Clouds
10:55 AM55.4 °F32.0 °F41 %29.95 in10.0 miWNW (290°)12.7 mph17.3 mphMostly Cloudy
11:15 AM57.2 °F32.0 °F38 %29.94 in10.0 miWest (280°)8.1 mphMostly Cloudy
11:35 AM55.4 °F32.0 °F41 %29.94 in10.0 miWest (280°)12.7 mph18.4 mphMostly Cloudy
11:55 AM55.4 °F30.2 °F38 %29.95 in10.0 miNNW (340°)9.2 mph20.7 mphOvercast
12:15 PM55.4 °F28.4 °F36 %29.95 in10.0 miNW (320°)15.0 mph21.9 mphOvercast
12:35 PM57.2 °F30.2 °F36 %29.95 in10.0 miNW (320°)15.0 mph23.0 mphMostly Cloudy
12:55 PM55.4 °F28.4 °F36 %29.96 in10.0 miWNW (300°)16.1 mph24.2 mphMostly Cloudy
1:15 PM57.2 °F30.2 °F36 %29.95 in10.0 miNNW (340°)16.1 mph24.2 mphOvercast
1:35 PM57.2 °F28.4 °F33 %29.96 in10.0 miNNW (330°)18.4 mph25.3 mphMostly Cloudy
1:55 PM55.4 °F28.4 °F36 %29.96 in10.0 miNNW (330°)17.3 mph27.6 mphMostly Cloudy
2:15 PM57.2 °F30.2 °F36 %29.96 in10.0 miNNW (330°)13.8 mph24.2 mphOvercast
2:35 PM57.2 °F32.0 °F38 %29.96 in10.0 miNNW (340°)15.0 mph20.7 mphMostly Cloudy
2:55 PM55.4 °F32.0 °F41 %29.96 in10.0 miNNW (330°)18.4 mph24.2 mphPartly Cloudy
3:15 PM57.2 °F30.2 °F36 %29.96 in10.0 miNW (320°)15.0 mph24.2 mphClear
3:35 PM57.2 °F28.4 °F33 %29.96 in10.0 miNW (320°)19.6 mph27.6 mphPartly Cloudy
3:55 PM59.0 °F28.4 °F31 %29.95 in10.0 miWNW (290°)15.0 mph25.3 mphScattered Clouds
4:15 PM59.0 °F28.4 °F31 %29.96 in10.0 miNW (310°)10.4 mph27.6 mphScattered Clouds
4:35 PM59.0 °F26.6 °F29 %29.95 in10.0 miNW (320°)13.8 mph28.8 mphMostly Cloudy
4:55 PM57.2 °F24.8 °F29 %29.96 in10.0 miNW (310°)17.3 mph27.6 mphScattered Clouds
5:15 PM59.0 °F28.4 °F31 %29.96 in10.0 miNW (310°)15.0 mph20.7 mphScattered Clouds
5:35 PM57.2 °F26.6 °F31 %29.97 in10.0 miNW (320°)16.1 mph23.0 mphPartly Cloudy
5:55 PM57.2 °F26.6 °F31 %29.98 in10.0 miNNW (330°)17.3 mph23.0 mphClear
6:15 PM57.2 °F26.6 °F31 %29.98 in10.0 miNNW (330°)13.8 mph21.9 mphClear
6:35 PM55.4 °F26.6 °F33 %29.99 in10.0 miNW (320°)12.7 mph19.6 mphClear
6:55 PM55.4 °F24.8 °F31 %30.00 in10.0 miNNW (340°)18.4 mph24.2 mphClear
7:15 PM55.4 °F24.8 °F31 %30.01 in10.0 miNNW (330°)11.5 mphClear
7:35 PM53.6 °F24.8 °F33 %30.02 in10.0 miNNW (330°)13.8 mph17.3 mphClear
7:55 PM53.6 °F24.8 °F33 %30.03 in10.0 miNW (320°)12.7 mph17.3 mphClear
8:15 PM51.8 °F24.8 °F35 %30.04 in10.0 miNNW (330°)8.1 mph19.6 mphClear
8:35 PM50.0 °F26.6 °F40 %30.05 in10.0 miNNW (340°)8.1 mphClear
8:55 PM50.0 °F26.6 °F40 %30.06 in10.0 miNNW (330°)11.5 mphClear
9:15 PM48.2 °F26.6 °F43 %30.07 in10.0 miNNW (330°)10.4 mphClear
9:35 PM48.2 °F26.6 °F43 %30.08 in10.0 miNNW (340°)11.5 mphClear
9:55 PM46.4 °F28.4 °F50 %30.09 in10.0 miNorth (360°)6.9 mphClear
10:15 PM46.4 °F28.4 °F50 %30.09 in10.0 miNorth (360°)5.8 mphClear
10:35 PM44.6 °F28.4 °F53 %30.09 in10.0 miNorth (350°)9.2 mphClear
10:55 PM44.6 °F28.4 °F53 %30.10 in10.0 miNNW (340°)8.1 mphClear
11:15 PM44.6 °F26.6 °F49 %30.10 in10.0 miNNW (340°)4.6 mphClear
11:35 PM44.6 °F26.6 °F49 %30.11 in10.0 miNNW (330°)6.9 mphClear
11:55 PM44.6 °F26.6 °F49 %30.11 in10.0 miNNW (330°)9.2 mphClear
Hourly data recorded from KMSV, located miles away from Rock Hill, New York







STORIES FROM OUR PARTNERS